When you browse on this site, cookies collect data to enhance your experience and personalize the content and advertising you see.
Visit our Privacy Policy to learn more. By continuing to use the site, you agree to this use of cookies and data.
  • In Hungary
  • List of Countries
  • For 7 days
  • Water Temperature
  • Weather Map
  • News
  • Weather Widgets
  • user-avatar
    Login

    Hourly Weather Tabuk

    Today, 19 November, Tuesday

    Time Temperature Precipitation Wind Pressure Humidity
    00:00 +13°C° 0 mm 4 mps 687 mmHg 40%
    01:00 +12°C° 0 mm 4 mps 687 mmHg 40%
    02:00 +12°C° 0 mm 4 mps 687 mmHg 42%
    03:00 +12°C° 0 mm 4 mps 687 mmHg 43%
    04:00 +11°C° 0 mm 4 mps 687 mmHg 44%
    05:00 +11°C° 0 mm 4 mps 687 mmHg 45%
    06:00 +11°C° 0 mm 4 mps 687 mmHg 42%
    07:00 +12°C° 0 mm 5 mps 687 mmHg 40%
    08:00 +13°C° 0 mm 5 mps 688 mmHg 37%
    09:00 +14°C° 0 mm 6 mps 688 mmHg 36%
    10:00 +15°C° 0 mm 6 mps 688 mmHg 35%
    11:00 +17°C° 0 mm 6 mps 688 mmHg 34%
    12:00 +17°C° 0 mm 6 mps 688 mmHg 34%
    13:00 +19°C° 0 mm 6 mps 687 mmHg 33%
    14:00 +20°C° 0 mm 5 mps 687 mmHg 32%
    15:00 +19°C° 0 mm 5 mps 687 mmHg 34%
    16:00 +19°C° 0 mm 5 mps 687 mmHg 35%
    17:00 +17°C° 0 mm 5 mps 687 mmHg 37%
    18:00 +16°C° 0 mm 5 mps 687 mmHg 38%
    19:00 +15°C° 0 mm 6 mps 687 mmHg 39%
    20:00 +14°C° 0 mm 6 mps 687 mmHg 40%
    21:00 +14°C° 0 mm 5 mps 687 mmHg 42%
    22:00 +13°C° 0 mm 5 mps 687 mmHg 45%
    23:00 +13°C° 0 mm 4 mps 687 mmHg 47%

    Tomorrow, 20 November, Wednesday

    Time Temperature Precipitation Wind Pressure Humidity
    00:00 +12°C° 0 mm 4 mps 687 mmHg 48%
    01:00 +12°C° 0 mm 4 mps 687 mmHg 49%
    02:00 +11°C° 0 mm 4 mps 687 mmHg 50%
    03:00 +11°C° 0 mm 4 mps 687 mmHg 49%
    04:00 +10°C° 0 mm 4 mps 687 mmHg 47%
    05:00 +10°C° 0 mm 4 mps 687 mmHg 46%
    06:00 +11°C° 0 mm 4 mps 687 mmHg 42%
    07:00 +10°C° 0 mm 5 mps 687 mmHg 38%
    08:00 +12°C° 0 mm 5 mps 687 mmHg 34%
    09:00 +14°C° 0 mm 5 mps 688 mmHg 33%
    10:00 +15°C° 0 mm 6 mps 688 mmHg 32%
    11:00 +17°C° 0 mm 6 mps 688 mmHg 30%
    12:00 +19°C° 0 mm 6 mps 688 mmHg 29%
    13:00 +19°C° 0 mm 6 mps 687 mmHg 28%
    14:00 +20°C° 0 mm 5 mps 687 mmHg 26%
    15:00 +19°C° 0 mm 5 mps 687 mmHg 27%
    16:00 +17°C° 0 mm 5 mps 687 mmHg 28%
    17:00 +17°C° 0 mm 5 mps 687 mmHg 28%
    18:00 +16°C° 0 mm 5 mps 687 mmHg 27%
    19:00 +15°C° 0 mm 5 mps 687 mmHg 26%
    20:00 +14°C° 0 mm 6 mps 687 mmHg 24%
    21:00 +13°C° 0 mm 5 mps 687 mmHg 24%
    22:00 +13°C° 0 mm 4 mps 687 mmHg 24%
    23:00 +12°C° 0 mm 4 mps 687 mmHg 23%

    Day after tomorrow, 21 November, Thursday

    Time Temperature Precipitation Wind Pressure Humidity
    00:00 +11°C° 0 mm 3 mps 687 mmHg 25%
    01:00 +11°C° 0 mm 3 mps 687 mmHg 26%
    02:00 +10°C° 0 mm 3 mps 686 mmHg 27%
    03:00 +10°C° 0 mm 3 mps 686 mmHg 28%
    04:00 +10°C° 0 mm 3 mps 686 mmHg 29%
    05:00 +9°C° 0 mm 3 mps 686 mmHg 29%
    06:00 +10°C° 0 mm 3 mps 687 mmHg 28%
    07:00 +11°C° 0 mm 3 mps 687 mmHg 26%
    08:00 +12°C° 0 mm 3 mps 687 mmHg 25%
    09:00 +14°C° 0 mm 3 mps 688 mmHg 21%
    10:00 +18°C° 0 mm 4 mps 688 mmHg 18%
    11:00 +20°C° 0 mm 4 mps 688 mmHg 14%
    12:00 +21°C° 0 mm 4 mps 688 mmHg 13%
    13:00 +22°C° 0 mm 4 mps 687 mmHg 11%
    14:00 +23°C° 0 mm 5 mps 687 mmHg 10%
    15:00 +21°C° 0 mm 4 mps 687 mmHg 11%
    16:00 +20°C° 0 mm 4 mps 686 mmHg 11%
    17:00 +19°C° 0 mm 3 mps 686 mmHg 12%
    18:00 +18°C° 0 mm 3 mps 686 mmHg 13%
    19:00 +17°C° 0 mm 3 mps 686 mmHg 14%
    20:00 +16°C° 0 mm 3 mps 686 mmHg 16%
    21:00 +16°C° 0 mm 2 mps 686 mmHg 17%
    22:00 +15°C° 0 mm 2 mps 686 mmHg 18%
    23:00 +14°C° 0 mm 2 mps 686 mmHg 19%

    22 November, Friday

    Time Temperature Precipitation Wind Pressure Humidity
    00:00 +14°C° 0 mm 1 mps 686 mmHg 20%
    01:00 +14°C° 0 mm 1 mps 686 mmHg 20%
    02:00 +14°C° 0 mm 1 mps 685 mmHg 21%
    03:00 +13°C° 0 mm 1 mps 685 mmHg 22%
    04:00 +13°C° 0 mm 1 mps 685 mmHg 23%
    05:00 +12°C° 0 mm 1 mps 685 mmHg 24%
    06:00 +13°C° 0 mm 1 mps 685 mmHg 22%
    07:00 +14°C° 0 mm 0 mps 686 mmHg 20%
    08:00 +15°C° 0 mm 0 mps 687 mmHg 18%
    09:00 +17°C° 0 mm 0 mps 687 mmHg 17%
    10:00 +20°C° 0 mm 1 mps 687 mmHg 15%
    11:00 +22°C° 0 mm 1 mps 687 mmHg 14%
    12:00 +22°C° 0 mm 1 mps 686 mmHg 14%
    13:00 +23°C° 0 mm 1 mps 686 mmHg 13%
    14:00 +24°C° 0 mm 1 mps 686 mmHg 12%
    15:00 +23°C° 0 mm 1 mps 685 mmHg 14%
    16:00 +22°C° 0 mm 1 mps 685 mmHg 15%
    17:00 +21°C° 0 mm 1 mps 685 mmHg 16%
    18:00 +20°C° 0 mm 1 mps 685 mmHg 17%
    19:00 +19°C° 0 mm 1 mps 685 mmHg 18%
    20:00 +18°C° 0 mm 1 mps 686 mmHg 19%
    21:00 +16°C° 0 mm 1 mps 686 mmHg 19%
    22:00 +16°C° 0 mm 1 mps 686 mmHg 19%
    23:00 +15°C° 0 mm 1 mps 686 mmHg 19%

    23 November, Saturday

    Time Temperature Precipitation Wind Pressure Humidity
    00:00 +15°C° 0 mm 1 mps 685 mmHg 20%
    01:00 +14°C° 0 mm 1 mps 685 mmHg 20%
    02:00 +14°C° 0 mm 1 mps 685 mmHg 20%
    03:00 +13°C° 0 mm 1 mps 685 mmHg 21%
    04:00 +13°C° 0 mm 1 mps 685 mmHg 22%
    05:00 +12°C° 0 mm 1 mps 685 mmHg 23%
    06:00 +14°C° 0 mm 1 mps 685 mmHg 21%
    07:00 +15°C° 0 mm 1 mps 686 mmHg 19%
    08:00 +18°C° 0 mm 1 mps 687 mmHg 17%
    09:00 +19°C° 0 mm 1 mps 687 mmHg 15%
    10:00 +21°C° 0 mm 1 mps 687 mmHg 14%
    11:00 +21°C° 0 mm 2 mps 687 mmHg 12%
    12:00 +23°C° 0 mm 2 mps 687 mmHg 13%
    13:00 +24°C° 0 mm 3 mps 687 mmHg 13%
    14:00 +24°C° 0 mm 3 mps 686 mmHg 14%
    15:00 +22°C° 0 mm 3 mps 686 mmHg 15%
    16:00 +21°C° 0 mm 3 mps 686 mmHg 17%
    17:00 +20°C° 0 mm 3 mps 686 mmHg 18%
    18:00 +19°C° 0 mm 2 mps 686 mmHg 19%
    19:00 +18°C° 0 mm 2 mps 686 mmHg 21%
    20:00 +18°C° 0 mm 1 mps 686 mmHg 22%
    21:00 +18°C° 0 mm 1 mps 686 mmHg 22%
    22:00 +18°C° 0 mm 1 mps 686 mmHg 23%
    23:00 +16°C° 0 mm 2 mps 686 mmHg 23%

    24 November, Sunday

    Time Temperature Precipitation Wind Pressure Humidity
    00:00 +16°C° 0 mm 1 mps 686 mmHg 24%
    01:00 +15°C° 0 mm 1 mps 685 mmHg 25%
    02:00 +14°C° 0 mm 1 mps 685 mmHg 26%
    03:00 +14°C° 0 mm 1 mps 685 mmHg 27%
    04:00 +13°C° 0 mm 1 mps 685 mmHg 28%
    05:00 +13°C° 0 mm 1 mps 685 mmHg 29%
    06:00 +14°C° 0 mm 1 mps 685 mmHg 26%
    07:00 +15°C° 0 mm 1 mps 686 mmHg 24%
    08:00 +15°C° 0 mm 0 mps 686 mmHg 22%
    09:00 +19°C° 0 mm 1 mps 686 mmHg 20%
    10:00 +20°C° 0 mm 1 mps 687 mmHg 19%
    11:00 +22°C° 0 mm 1 mps 687 mmHg 17%
    12:00 +23°C° 0 mm 1 mps 686 mmHg 16%
    13:00 +24°C° 0 mm 1 mps 686 mmHg 15%
    14:00 +25°C° 0 mm 1 mps 686 mmHg 15%
    15:00 +23°C° 0 mm 1 mps 686 mmHg 16%
    16:00 +22°C° 0 mm 1 mps 685 mmHg 18%
    17:00 +21°C° 0 mm 1 mps 685 mmHg 20%
    18:00 +21°C° 0 mm 1 mps 685 mmHg 21%
    19:00 +20°C° 0 mm 1 mps 685 mmHg 22%
    20:00 +19°C° 0 mm 1 mps 685 mmHg 23%
    21:00 +19°C° 0 mm 1 mps 685 mmHg 24%
    22:00 +18°C° 0 mm 1 mps 685 mmHg 25%
    23:00 +16°C° 0 mm 1 mps 685 mmHg 26%
    Show more